Kolka

Latvia     57˚44′25″N   22˚35′08″E
temp.,
°C
wind,
m/s
gust,
m/s
humid.,
%
clouds,
%
prec.,
mm/h
press.,
hPa
HPBL,
m
29 november, sun
sun2923:00+4˚ene7878100 0.2 1026815
02:00+3˚e6777100 0.3 1026760
05:00+3˚e6776100 0.1 1026755
08:00+3˚e6778100 0.3 1026760
11:00+3˚e667294 0.1 1026895
14:00+3˚e557595 0.3 1025773
17:00+2˚ene567396 0.1 1024804
20:00+2˚ne567594 0.2 1024712
30 november, mon
mon3023:00+2˚ne5580100 0.1 1023642
02:00+2˚ne4586100 0.4 1022479
05:00+2˚ne3488100 0.3 1020374
08:00+2˚ne1291100 0.6 1020232
11:00+2˚wnw2292100 0.4 1019252
14:00+2˚sw458599 0.5 1019418
17:00+2˚sw4693100 0.2 1017429
20:00+2˚ssw5792100 0.3 1017435
1 december, tue
tue123:00+1˚ssw689784 0.3 1017316
02:00+2˚ssw799692 0.4 1017355
05:00+3˚ssw6892100 0.1 1017467
08:00+4˚ssw6987100 0.3 1019453
11:00+4˚ssw71089100 0.0 1020488
14:00+4˚ssw91290100 0.9 1021699
17:00+4˚ssw71084100 0.1 1023611
20:00+3˚ssw71083100 0.1 1025416
2 december, wed
wed223:00+2˚ssw6984100 0.0 1026348
02:00+1˚ssw688687 0.0 1027323
05:00+1˚ssw578710 0.0 1027274
08:00+1˚ssw568334 0.0 1027276
11:00+1˚s468246 0.0 1028288
14:00+1˚s467723 0.0 1027390
17:00+1˚s567723 0.0 1026403
20:00s577954 0.0 1026422
3 december, thu
thu323:00s687837 0.0 1025423
02:00s687660 0.0 1024418
05:00s6876100 0.0 1023393
08:00sse6981100 0.0 1022404
11:00sse7988100 0.0 1021427
14:00s6982100 0.0 1020773
17:00+1˚sse7879100 0.0 1020735
20:00+1˚sse7983100 0.1 1019675